Time,TemperatureF,DewpointF,PressureIn,WindDirection,WindDirectionDegrees,WindSpeedMPH,WindSpeedGustMPH,Humidity,HourlyPrecipIn,Conditions,Clouds,dailyrainin,SolarRadiationWatts/m^2,SoftwareType,DateUTC
2013-04-27 00:01:00,37.3,31.4,30.45,East,89,0.2,1.2,79,0.00,SCT,,0.00,0.0,WeatherDisplay:10.37,2013-04-27 04:01:00,
2013-04-27 00:06:00,37.0,31.4,30.45,East,89,0.0,0.0,80,0.00,SCT,,0.00,0.0,WeatherDisplay:10.37,2013-04-27 04:06:00,
2013-04-27 00:11:00,36.9,31.3,30.45,East,89,1.4,2.3,80,0.00,SCT,,0.00,0.0,WeatherDisplay:10.37,2013-04-27 04:11:00,
2013-04-27 00:16:00,36.6,31.6,30.45,East,90,0.1,1.2,82,0.00,SCT,,0.00,0.0,WeatherDisplay:10.37,2013-04-27 04:16:00,
2013-04-27 00:21:00,36.2,31.5,30.45,East,90,1.9,3.5,83,0.00,SCT,,0.00,0.0,WeatherDisplay:10.37,2013-04-27 04:21:00,
2013-04-27 00:26:00,35.9,31.2,30.45,East,100,0.3,1.2,83,0.00,SCT,,0.00,0.0,WeatherDisplay:10.37,2013-04-27 04:26:00,
2013-04-27 00:32:00,35.7,31.3,30.45,East,100,0.0,2.3,84,0.00,SCT,,0.00,0.0,WeatherDisplay:10.37,2013-04-27 04:32:00,
2013-04-27 00:37:00,35.6,31.2,30.46,East,100,0.0,1.2,84,0.00,SCT,,0.00,0.0,WeatherDisplay:10.37,2013-04-27 04:37:00,
2013-04-27 00:42:00,35.5,31.1,30.46,East,100,0.0,1.2,84,0.00,SCT,,0.00,0.0,WeatherDisplay:10.37,2013-04-27 04:42:00,
2013-04-27 00:47:00,35.5,31.1,30.45,East,100,0.0,1.2,84,0.00,SCT,,0.00,0.0,WeatherDisplay:10.37,2013-04-27 04:47:00,
2013-04-27 00:52:00,35.4,31.0,30.46,ESE,102,2.1,4.6,84,0.00,SCT,,0.00,0.0,WeatherDisplay:10.37,2013-04-27 04:52:00,
2013-04-27 00:57:00,35.3,30.9,30.46,ESE,102,0.0,0.0,84,0.00,SCT,,0.00,0.0,WeatherDisplay:10.37,2013-04-27 04:57:00,
2013-04-27 01:02:00,35.1,30.8,30.45,ESE,102,0.0,1.2,84,0.00,SCT,,0.00,0.0,WeatherDisplay:10.37,2013-04-27 05:02:00,
2013-04-27 01:07:00,34.9,30.6,30.45,ESE,102,0.0,0.0,84,0.00,SCT,,0.00,0.0,WeatherDisplay:10.37,2013-04-27 05:07:00,
2013-04-27 01:12:00,34.8,30.8,30.45,ESE,102,0.0,0.0,85,0.00,SCT,,0.00,0.0,WeatherDisplay:10.37,2013-04-27 05:12:00,
2013-04-27 01:17:00,34.7,30.7,30.46,ESE,102,0.0,0.0,85,0.00,SCT,,0.00,0.0,WeatherDisplay:10.37,2013-04-27 05:17:00,
2013-04-27 01:22:00,34.6,30.6,30.45,ESE,102,0.1,1.2,85,0.00,SCT,,0.00,0.0,WeatherDisplay:10.37,2013-04-27 05:22:00,
2013-04-27 01:27:00,34.5,30.5,30.45,ESE,102,0.0,0.0,85,0.00,SCT,,0.00,0.0,WeatherDisplay:10.37,2013-04-27 05:27:00,
2013-04-27 01:32:00,34.3,30.5,30.45,ESE,102,0.0,0.0,86,0.00,SCT,,0.00,0.0,WeatherDisplay:10.37,2013-04-27 05:32:00,
2013-04-27 01:37:00,34.1,30.4,30.45,ESE,102,0.0,0.0,86,0.00,SCT,,0.00,0.0,WeatherDisplay:10.37,2013-04-27 05:37:00,
2013-04-27 01:42:00,33.8,30.3,30.45,ESE,102,0.3,1.0,87,0.00,SCT,,0.00,0.0,WeatherDisplay:10.37,2013-04-27 05:42:00,
2013-04-27 01:47:00,33.6,30.4,30.46,ESE,102,0.8,2.3,88,0.00,SCT,,0.00,0.0,WeatherDisplay:10.37,2013-04-27 05:47:00,
2013-04-27 01:52:00,33.4,29.9,30.45,ESE,102,0.0,0.0,87,0.00,SCT,,0.00,0.0,WeatherDisplay:10.37,2013-04-27 05:52:00,
2013-04-27 01:57:00,33.3,29.8,30.45,ESE,102,0.0,0.0,87,0.00,SCT,,0.00,0.0,WeatherDisplay:10.37,2013-04-27 05:57:00,
2013-04-27 02:02:00,33.2,30.0,30.45,ESE,102,0.0,0.0,88,0.00,SCT,,0.00,0.0,WeatherDisplay:10.37,2013-04-27 06:02:00,
2013-04-27 02:07:00,33.1,29.9,30.45,ESE,102,0.2,1.2,88,0.00,SCT,,0.00,0.0,WeatherDisplay:10.37,2013-04-27 06:07:00,
2013-04-27 02:12:00,32.9,29.7,30.44,ESE,102,0.3,2.3,88,0.00,SCT,,0.00,0.0,WeatherDisplay:10.37,2013-04-27 06:12:00,
2013-04-27 02:17:00,32.6,29.7,30.44,ESE,102,0.0,1.2,89,0.00,SCT,,0.00,0.0,WeatherDisplay:10.37,2013-04-27 06:17:00,
2013-04-27 02:22:00,32.5,29.6,30.44,ESE,103,1.1,2.3,89,0.00,SCT,,0.00,0.0,WeatherDisplay:10.37,2013-04-27 06:22:00,
2013-04-27 02:27:00,32.4,29.8,30.44,ESE,111,1.5,4.0,90,0.00,SCT,,0.00,0.0,WeatherDisplay:10.37,2013-04-27 06:27:00,
2013-04-27 02:32:00,32.3,29.4,30.44,ESE,113,1.3,3.5,89,0.00,SCT,,0.00,0.0,WeatherDisplay:10.37,2013-04-27 06:32:00,
2013-04-27 02:37:00,32.2,29.3,30.44,ESE,113,3.0,4.0,89,0.00,SCT,,0.00,0.0,WeatherDisplay:10.37,2013-04-27 06:37:00,
2013-04-27 02:42:00,32.1,29.5,30.44,ESE,113,0.8,2.3,90,0.00,SCT,,0.00,0.0,WeatherDisplay:10.37,2013-04-27 06:42:00,
2013-04-27 02:47:00,32.3,29.7,30.44,ESE,113,0.0,1.2,90,0.00,SCT,,0.00,0.0,WeatherDisplay:10.37,2013-04-27 06:47:00,
2013-04-27 02:52:00,32.3,29.4,30.43,ESE,113,0.0,0.0,89,0.00,SCT,,0.00,0.0,WeatherDisplay:10.37,2013-04-27 06:52:00,
2013-04-27 02:57:00,32.0,29.1,30.43,ESE,113,0.0,0.0,89,0.00,SCT,,0.00,0.0,WeatherDisplay:10.37,2013-04-27 06:57:00,
2013-04-27 03:02:00,31.7,29.1,30.43,ESE,113,0.0,1.0,90,0.00,SCT,,0.00,0.0,WeatherDisplay:10.37,2013-04-27 07:02:00,
2013-04-27 03:07:00,31.6,29.3,30.43,ESE,113,0.0,0.0,91,0.00,SCT,,0.00,0.0,WeatherDisplay:10.37,2013-04-27 07:07:00,
2013-04-27 03:12:00,31.6,29.3,30.43,ESE,113,0.0,0.0,91,0.00,SCT,,0.00,0.0,WeatherDisplay:10.37,2013-04-27 07:12:00,
2013-04-27 03:17:00,31.5,29.2,30.43,ESE,113,0.0,0.0,91,0.00,SCT,,0.00,0.0,WeatherDisplay:10.37,2013-04-27 07:17:00,
2013-04-27 03:22:00,31.3,29.0,30.43,ESE,113,0.0,0.0,91,0.00,SCT,,0.00,0.0,WeatherDisplay:10.37,2013-04-27 07:22:00,
2013-04-27 03:27:00,31.4,29.1,30.43,ESE,113,0.0,0.0,91,0.00,SCT,,0.00,0.0,WeatherDisplay:10.37,2013-04-27 07:27:00,
2013-04-27 03:32:00,31.5,29.2,30.43,ESE,113,0.0,0.0,91,0.00,SCT,,0.00,0.0,WeatherDisplay:10.37,2013-04-27 07:32:00,
2013-04-27 03:37:00,31.6,29.3,30.43,ESE,113,0.0,0.0,91,0.00,SCT,,0.00,0.0,WeatherDisplay:10.37,2013-04-27 07:37:00,
2013-04-27 03:42:00,31.6,29.0,30.43,ESE,113,0.0,0.0,90,0.00,SCT,,0.00,0.0,WeatherDisplay:10.37,2013-04-27 07:42:00,
2013-04-27 03:47:00,31.4,28.8,30.43,ESE,113,0.0,0.0,90,0.00,SCT,,0.00,0.0,WeatherDisplay:10.37,2013-04-27 07:47:00,
2013-04-27 03:52:00,31.3,29.0,30.43,ESE,113,0.0,0.0,91,0.00,SCT,,0.00,0.0,WeatherDisplay:10.37,2013-04-27 07:52:00,
2013-04-27 03:57:00,31.2,28.9,30.43,ESE,113,0.0,0.0,91,0.00,SCT,,0.00,0.0,WeatherDisplay:10.37,2013-04-27 07:57:00,
2013-04-27 04:02:00,31.1,28.8,30.43,ESE,113,0.0,0.0,91,0.00,SCT,,0.00,0.0,WeatherDisplay:10.37,2013-04-27 08:02:00,
2013-04-27 04:07:00,31.0,28.7,30.43,ESE,113,0.0,0.0,91,0.00,SCT,,0.00,0.0,WeatherDisplay:10.37,2013-04-27 08:07:00,
2013-04-27 04:12:00,30.8,28.5,30.43,ESE,113,0.0,0.0,91,0.00,SCT,,0.00,0.0,WeatherDisplay:10.37,2013-04-27 08:12:00,
2013-04-27 04:17:00,30.6,28.3,30.44,ESE,113,0.2,1.2,91,0.00,SCT,,0.00,0.0,WeatherDisplay:10.37,2013-04-27 08:17:00,
2013-04-27 04:22:00,30.5,28.2,30.43,ESE,113,0.0,0.0,91,0.00,SCT,,0.00,0.0,WeatherDisplay:10.37,2013-04-27 08:22:00,
2013-04-27 04:27:00,30.3,28.0,30.43,ESE,113,0.6,2.3,91,0.00,SCT,,0.00,0.0,WeatherDisplay:10.37,2013-04-27 08:27:00,
2013-04-27 04:32:00,30.3,28.3,30.43,ESE,113,0.0,0.0,92,0.00,SCT,,0.00,0.0,WeatherDisplay:10.37,2013-04-27 08:32:00,
2013-04-27 04:37:00,30.2,28.2,30.44,ESE,113,0.0,0.0,92,0.00,SCT,,0.00,0.0,WeatherDisplay:10.37,2013-04-27 08:37:00,
2013-04-27 04:42:00,30.2,28.2,30.43,ESE,113,0.0,0.0,92,0.00,SCT,,0.00,0.0,WeatherDisplay:10.37,2013-04-27 08:42:00,
2013-04-27 04:47:00,30.1,28.1,30.43,ESE,113,0.0,0.0,92,0.00,SCT,,0.00,0.0,WeatherDisplay:10.37,2013-04-27 08:47:00,
2013-04-27 04:52:00,30.0,28.0,30.43,ESE,113,0.0,0.0,92,0.00,SCT,,0.00,0.0,WeatherDisplay:10.37,2013-04-27 08:52:00,
2013-04-27 04:57:00,29.9,27.9,30.43,ESE,113,0.0,0.0,92,0.00,SCT,,0.00,0.0,WeatherDisplay:10.37,2013-04-27 08:57:00,
2013-04-27 05:02:00,29.7,27.7,30.43,ESE,113,0.0,0.0,92,0.00,SCT,,0.00,0.0,WeatherDisplay:10.37,2013-04-27 09:02:00,
2013-04-27 05:07:00,29.7,27.7,30.43,ESE,113,0.0,0.0,92,0.00,SCT,,0.00,0.0,WeatherDisplay:10.37,2013-04-27 09:07:00,
2013-04-27 05:12:00,29.6,27.8,30.43,ESE,113,0.1,1.2,93,0.00,SCT,,0.00,0.0,WeatherDisplay:10.37,2013-04-27 09:12:00,
2013-04-27 05:17:00,29.5,27.7,30.43,ESE,113,0.1,0.0,93,0.00,SCT,,0.00,0.0,WeatherDisplay:10.37,2013-04-27 09:17:00,
2013-04-27 05:22:00,29.5,27.7,30.43,ESE,113,0.0,0.0,93,0.00,SCT,,0.00,0.0,WeatherDisplay:10.37,2013-04-27 09:22:00,
2013-04-27 05:27:00,29.4,27.6,30.43,ESE,113,0.1,1.2,93,0.00,SCT,,0.00,0.0,WeatherDisplay:10.37,2013-04-27 09:27:00,
2013-04-27 05:32:00,29.4,27.9,30.43,ESE,113,0.0,0.0,94,0.00,SCT,,0.00,0.0,WeatherDisplay:10.37,2013-04-27 09:32:00,
2013-04-27 05:38:00,29.4,27.9,30.43,ESE,113,0.0,0.0,94,0.00,SCT,,0.00,0.0,WeatherDisplay:10.37,2013-04-27 09:38:00,
2013-04-27 05:43:00,29.4,27.6,30.43,ESE,113,0.0,0.0,93,0.00,SCT,,0.00,0.0,WeatherDisplay:10.37,2013-04-27 09:43:00,
2013-04-27 05:48:00,29.3,27.5,30.43,ESE,113,0.0,0.0,93,0.00,SCT,,0.00,0.0,WeatherDisplay:10.37,2013-04-27 09:48:00,
2013-04-27 05:53:00,29.3,27.8,30.43,ESE,113,0.1,2.3,94,0.00,SCT,,0.00,0.0,WeatherDisplay:10.37,2013-04-27 09:53:00,
2013-04-27 05:58:00,29.3,27.8,30.43,ESE,113,0.0,0.0,94,0.00,SCT,,0.00,7.9,WeatherDisplay:10.37,2013-04-27 09:58:00,
2013-04-27 06:03:00,29.3,27.8,30.43,ESE,113,0.0,1.2,94,0.00,SCT,,0.00,12.4,WeatherDisplay:10.37,2013-04-27 10:03:00,
2013-04-27 06:08:00,29.3,27.8,30.43,ESE,113,0.1,1.2,94,0.00,SCT,,0.00,13.6,WeatherDisplay:10.37,2013-04-27 10:08:00,
2013-04-27 06:13:00,29.3,27.8,30.43,ESE,113,1.3,2.3,94,0.00,SCT,,0.00,23.7,WeatherDisplay:10.37,2013-04-27 10:13:00,
2013-04-27 06:18:00,29.5,28.0,30.43,ESE,113,0.3,1.2,94,0.00,SCT,,0.00,33.9,WeatherDisplay:10.37,2013-04-27 10:18:00,
2013-04-27 06:23:00,29.8,28.3,30.43,ESE,113,1.1,2.3,94,0.00,SCT,,0.00,45.2,WeatherDisplay:10.37,2013-04-27 10:23:00,
2013-04-27 06:28:00,30.1,28.6,30.43,ESE,113,0.0,0.0,94,0.00,SCT,,0.00,59.9,WeatherDisplay:10.37,2013-04-27 10:28:00,
2013-04-27 06:33:00,30.5,29.0,30.43,ESE,113,0.0,0.0,94,0.00,SCT,,0.00,73.5,WeatherDisplay:10.37,2013-04-27 10:33:00,
2013-04-27 06:38:00,30.8,29.5,30.43,ESE,113,0.0,0.0,95,0.00,SCT,,0.00,91.5,WeatherDisplay:10.37,2013-04-27 10:38:00,
2013-04-27 06:43:00,31.2,29.7,30.43,ESE,113,0.0,0.0,94,0.00,FEW,,0.00,102.8,WeatherDisplay:10.37,2013-04-27 10:43:00,
2013-04-27 06:48:00,31.6,30.1,30.43,ESE,113,0.0,0.0,94,0.00,FEW,,0.00,115.3,WeatherDisplay:10.37,2013-04-27 10:48:00,
2013-04-27 06:53:00,32.4,31.1,30.43,ESE,113,0.0,0.0,95,0.00,FEW,,0.00,143.5,WeatherDisplay:10.37,2013-04-27 10:53:00,
2013-04-27 06:58:00,33.1,31.6,30.44,ESE,113,0.0,0.0,94,0.00,FEW,,0.00,167.2,WeatherDisplay:10.37,2013-04-27 10:58:00,
2013-04-27 07:03:00,33.5,31.7,30.44,ESE,113,0.0,0.0,93,0.00,FEW,,0.00,194.4,WeatherDisplay:10.37,2013-04-27 11:03:00,
2013-04-27 07:08:00,34.2,32.7,30.44,ESE,113,0.0,0.0,94,0.00,FEW,,0.00,218.1,WeatherDisplay:10.37,2013-04-27 11:08:00,
2013-04-27 07:13:00,35.0,33.4,30.44,ESE,113,0.0,0.0,94,0.00,FEW,,0.00,224.9,WeatherDisplay:10.37,2013-04-27 11:13:00,
2013-04-27 07:18:00,35.7,33.9,30.45,ESE,113,0.4,2.3,93,0.00,FEW,,0.00,232.8,WeatherDisplay:10.37,2013-04-27 11:18:00,
2013-04-27 07:23:00,36.5,34.4,30.44,ESE,113,0.0,0.0,92,0.00,FEW,,0.00,194.4,WeatherDisplay:10.37,2013-04-27 11:23:00,
2013-04-27 07:28:00,37.1,34.7,30.44,ESE,113,0.1,0.0,91,0.00,SCT,,0.00,180.8,WeatherDisplay:10.37,2013-04-27 11:28:00,
2013-04-27 07:33:00,37.4,34.7,30.44,ESE,113,0.0,0.0,90,0.00,SCT,,0.00,184.2,WeatherDisplay:10.37,2013-04-27 11:33:00,
2013-04-27 07:38:00,37.7,35.0,30.45,ESE,113,0.0,0.0,90,0.00,SCT,,0.00,210.2,WeatherDisplay:10.37,2013-04-27 11:38:00,
2013-04-27 07:43:00,38.2,35.5,30.45,ESE,113,0.0,0.0,90,0.00,FEW,,0.00,275.7,WeatherDisplay:10.37,2013-04-27 11:43:00,
2013-04-27 07:48:00,38.7,35.5,30.45,ESE,113,1.2,2.3,88,0.00,FEW,,0.00,248.6,WeatherDisplay:10.37,2013-04-27 11:48:00,
2013-04-27 07:53:00,39.0,34.6,30.44,ESE,113,0.1,1.2,84,0.00,FEW,,0.00,266.7,WeatherDisplay:10.37,2013-04-27 11:53:00,
2013-04-27 07:58:00,39.3,35.2,30.45,ESE,113,0.0,1.2,85,0.00,FEW,,0.00,319.8,WeatherDisplay:10.37,2013-04-27 11:58:00,
2013-04-27 08:03:00,39.8,35.1,30.45,SSE,160,3.6,4.0,83,0.00,FEW,,0.00,341.3,WeatherDisplay:10.37,2013-04-27 12:03:00,
2013-04-27 08:08:00,40.2,35.4,30.45,SW,231,3.5,4.0,83,0.00,FEW,,0.00,361.6,WeatherDisplay:10.37,2013-04-27 12:08:00,
2013-04-27 08:13:00,40.6,35.2,30.45,WSW,253,3.1,3.5,81,0.00,FEW,,0.00,385.3,WeatherDisplay:10.37,2013-04-27 12:13:00,
2013-04-27 08:18:00,40.9,35.5,30.45,WSW,254,2.6,3.5,81,0.00,FEW,,0.00,372.9,WeatherDisplay:10.37,2013-04-27 12:18:00,
2013-04-27 08:23:00,41.1,35.7,30.45,WSW,254,0.4,2.3,81,0.00,FEW,,0.00,387.6,WeatherDisplay:10.37,2013-04-27 12:23:00,
2013-04-27 08:28:00,41.6,36.2,30.45,WSW,254,2.0,3.5,81,0.00,FEW,,0.00,440.7,WeatherDisplay:10.37,2013-04-27 12:28:00,
2013-04-27 08:33:00,42.4,36.3,30.45,WSW,254,0.0,2.3,79,0.00,FEW,,0.00,479.1,WeatherDisplay:10.37,2013-04-27 12:33:00,
2013-04-27 08:38:00,43.2,37.4,30.45,WSW,254,1.4,2.3,80,0.00,CLR,,0.00,530.0,WeatherDisplay:10.37,2013-04-27 12:38:00,
2013-04-27 08:43:00,44.0,36.6,30.45,WSW,255,1.6,3.5,75,0.00,FEW,,0.00,466.7,WeatherDisplay:10.37,2013-04-27 12:43:00,
2013-04-27 08:48:00,44.3,37.2,30.45,West,263,4.4,6.9,76,0.00,FEW,,0.00,464.4,WeatherDisplay:10.37,2013-04-27 12:48:00,
2013-04-27 08:53:00,44.7,36.9,30.45,West,263,3.3,3.5,74,0.00,FEW,,0.00,542.4,WeatherDisplay:10.37,2013-04-27 12:53:00,
2013-04-27 08:58:00,45.3,37.5,30.45,West,263,0.1,2.3,74,0.00,CLR,,0.00,560.5,WeatherDisplay:10.37,2013-04-27 12:58:00,
2013-04-27 09:03:00,45.8,36.9,30.45,West,263,0.7,2.3,71,0.00,FEW,,0.00,490.4,WeatherDisplay:10.37,2013-04-27 13:03:00,
2013-04-27 09:08:00,46.1,37.2,30.45,West,263,0.0,1.2,71,0.00,FEW,,0.00,621.5,WeatherDisplay:10.37,2013-04-27 13:08:00,
2013-04-27 09:13:00,46.4,36.8,30.45,West,263,0.1,1.2,69,0.00,CLR,,0.00,689.3,WeatherDisplay:10.37,2013-04-27 13:13:00,
2013-04-27 09:18:00,46.7,37.4,30.45,West,263,1.0,2.3,70,0.00,CLR,,0.00,697.2,WeatherDisplay:10.37,2013-04-27 13:18:00,
2013-04-27 09:23:00,47.0,37.4,30.46,West,263,2.8,3.5,69,0.00,CLR,,0.00,605.7,WeatherDisplay:10.37,2013-04-27 13:23:00,
2013-04-27 09:28:00,47.5,38.6,30.45,West,267,2.7,4.6,71,0.00,CLR,,0.00,631.7,WeatherDisplay:10.37,2013-04-27 13:28:00,
2013-04-27 09:33:00,48.2,38.5,30.46,West,267,1.5,3.5,69,0.00,CLR,,0.00,633.9,WeatherDisplay:10.37,2013-04-27 13:33:00,
2013-04-27 09:38:00,48.8,38.3,30.45,West,269,1.8,3.5,67,0.00,FEW,,0.00,611.3,WeatherDisplay:10.37,2013-04-27 13:38:00,
2013-04-27 09:43:00,49.2,37.5,30.45,West,270,2.8,3.5,64,0.00,FEW,,0.00,645.2,WeatherDisplay:10.37,2013-04-27 13:43:00,
2013-04-27 09:48:00,49.3,38.0,30.45,West,270,1.2,3.5,65,0.00,CLR,,0.00,702.9,WeatherDisplay:10.37,2013-04-27 13:48:00,
2013-04-27 09:53:00,49.5,38.2,30.45,West,274,0.7,2.3,65,0.00,CLR,,0.00,802.3,WeatherDisplay:10.37,2013-04-27 13:53:00,
2013-04-27 09:58:00,49.8,38.1,30.45,West,276,1.4,3.5,64,0.00,CLR,,0.00,784.2,WeatherDisplay:10.37,2013-04-27 13:58:00,
2013-04-27 10:03:00,50.1,38.8,30.45,West,276,0.6,3.5,65,0.00,CLR,,0.00,726.6,WeatherDisplay:10.37,2013-04-27 14:03:00,
2013-04-27 10:08:00,50.5,38.8,30.45,West,276,0.5,2.3,64,0.00,CLR,,0.00,796.6,WeatherDisplay:10.37,2013-04-27 14:08:00,
2013-04-27 10:13:00,51.1,38.5,30.44,West,279,1.5,2.3,62,0.00,CLR,,0.00,776.3,WeatherDisplay:10.37,2013-04-27 14:13:00,
2013-04-27 10:18:00,51.6,38.2,30.45,West,279,1.2,3.5,60,0.00,CLR,,0.00,794.4,WeatherDisplay:10.37,2013-04-27 14:18:00,
2013-04-27 10:23:00,52.3,38.4,30.45,West,279,3.0,3.5,59,0.00,CLR,,0.00,806.8,WeatherDisplay:10.37,2013-04-27 14:23:00,
2013-04-27 10:28:00,52.6,38.7,30.45,West,280,2.2,3.5,59,0.00,CLR,,0.00,778.6,WeatherDisplay:10.37,2013-04-27 14:28:00,
2013-04-27 10:33:00,53.1,38.7,30.45,West,280,0.8,2.3,58,0.00,CLR,,0.00,872.4,WeatherDisplay:10.37,2013-04-27 14:33:00,
2013-04-27 10:38:00,53.5,38.6,30.45,West,280,1.3,3.5,57,0.00,CLR,,0.00,878.0,WeatherDisplay:10.37,2013-04-27 14:38:00,
2013-04-27 10:43:00,54.0,38.2,30.45,West,280,0.3,2.3,55,0.00,CLR,,0.00,891.6,WeatherDisplay:10.37,2013-04-27 14:43:00,
2013-04-27 10:48:00,54.4,39.9,30.44,West,280,3.3,5.0,58,0.00,CLR,,0.00,899.5,WeatherDisplay:10.37,2013-04-27 14:48:00,
2013-04-27 10:53:00,54.1,37.3,30.44,West,279,3.6,5.8,53,0.00,CLR,,0.00,891.6,WeatherDisplay:10.37,2013-04-27 14:53:00,
2013-04-27 10:58:00,54.1,40.1,30.44,West,279,2.8,3.5,59,0.00,CLR,,0.00,909.6,WeatherDisplay:10.37,2013-04-27 14:58:00,
2013-04-27 11:03:00,54.9,37.1,30.44,NW,315,3.8,5.8,51,0.00,CLR,,0.00,930.0,WeatherDisplay:10.37,2013-04-27 15:03:00,
2013-04-27 11:08:00,55.5,35.0,30.44,North,350,1.7,5.0,46,0.00,CLR,,0.00,946.9,WeatherDisplay:10.37,2013-04-27 15:08:00,
2013-04-27 11:13:00,56.0,34.9,30.44,North,355,1.9,3.5,45,0.00,CLR,,0.00,951.5,WeatherDisplay:10.37,2013-04-27 15:13:00,
2013-04-27 11:18:00,56.5,33.7,30.44,NW,326,3.7,4.6,42,0.00,CLR,,0.00,956.0,WeatherDisplay:10.37,2013-04-27 15:18:00,
2013-04-27 11:24:00,56.4,36.4,30.44,WNW,293,1.3,3.5,47,0.00,CLR,,0.00,963.9,WeatherDisplay:10.37,2013-04-27 15:24:00,
2013-04-27 11:29:00,56.6,37.1,30.43,WNW,293,0.7,2.3,48,0.00,CLR,,0.00,972.9,WeatherDisplay:10.37,2013-04-27 15:29:00,
2013-04-27 11:34:00,57.0,35.9,30.43,NW,304,1.1,3.5,45,0.00,CLR,,0.00,979.7,WeatherDisplay:10.37,2013-04-27 15:34:00,
2013-04-27 11:39:00,57.6,34.7,30.43,NW,304,0.9,2.3,42,0.00,CLR,,0.00,983.1,WeatherDisplay:10.37,2013-04-27 15:39:00,
2013-04-27 11:44:00,58.0,34.4,30.43,ENE,60,2.6,3.5,41,0.00,CLR,,0.00,993.3,WeatherDisplay:10.37,2013-04-27 15:44:00,
2013-04-27 11:49:00,57.9,34.3,30.42,NNW,331,1.9,3.5,41,0.00,CLR,,0.00,987.6,WeatherDisplay:10.37,2013-04-27 15:49:00,
2013-04-27 11:54:00,57.9,33.1,30.42,NW,318,0.7,2.0,39,0.00,CLR,,0.00,1001.2,WeatherDisplay:10.37,2013-04-27 15:54:00,
2013-04-27 11:58:00,57.7,35.9,30.42,NW,308,0.6,2.3,44,0.00,CLR,,0.00,1004.6,WeatherDisplay:10.37,2013-04-27 15:58:00,
2013-04-27 12:04:00,57.9,32.4,30.42,WNW,291,2.2,3.5,38,0.00,CLR,,0.00,1009.1,WeatherDisplay:10.37,2013-04-27 16:04:00,
2013-04-27 12:09:00,58.0,31.2,30.42,NE,42,1.2,3.5,36,0.00,CLR,,0.00,1011.4,WeatherDisplay:10.37,2013-04-27 16:09:00,
2013-04-27 12:14:00,58.1,33.2,30.41,NE,35,2.5,3.5,39,0.00,CLR,,0.00,1017.0,WeatherDisplay:10.37,2013-04-27 16:14:00,
2013-04-27 12:19:00,58.5,33.6,30.41,NW,308,2.9,4.6,39,0.00,CLR,,0.00,1024.9,WeatherDisplay:10.37,2013-04-27 16:19:00,
2013-04-27 12:24:00,59.2,32.2,30.41,West,265,3.1,3.5,36,0.00,CLR,,0.00,1029.4,WeatherDisplay:10.37,2013-04-27 16:24:00,
2013-04-27 12:29:00,59.7,34.7,30.41,West,265,1.7,3.5,39,0.00,CLR,,0.00,1030.6,WeatherDisplay:10.37,2013-04-27 16:29:00,
2013-04-27 12:34:00,59.7,31.3,30.41,WNW,290,0.1,1.2,34,0.00,CLR,,0.00,1032.8,WeatherDisplay:10.37,2013-04-27 16:34:00,
2013-04-27 12:39:00,59.2,34.2,30.40,WNW,290,2.2,3.5,39,0.00,CLR,,0.00,1032.8,WeatherDisplay:10.37,2013-04-27 16:39:00,
2013-04-27 12:44:00,59.2,32.2,30.40,WNW,299,4.0,7.0,36,0.00,CLR,,0.00,1027.2,WeatherDisplay:10.37,2013-04-27 16:44:00,
2013-04-27 12:49:00,59.3,29.4,30.40,North,360,1.1,3.5,32,0.00,CLR,,0.00,1032.8,WeatherDisplay:10.37,2013-04-27 16:49:00,
2013-04-27 12:54:00,59.3,32.3,30.39,North,355,2.6,4.0,36,0.00,CLR,,0.00,1032.8,WeatherDisplay:10.37,2013-04-27 16:54:00,
2013-04-27 12:59:00,59.6,32.6,30.39,NE,52,1.3,4.0,36,0.00,CLR,,0.00,1030.6,WeatherDisplay:10.37,2013-04-27 16:59:00,
2013-04-27 13:04:00,59.9,33.5,30.39,NE,51,3.0,4.0,37,0.00,CLR,,0.00,1027.2,WeatherDisplay:10.37,2013-04-27 17:04:00,
2013-04-27 13:09:00,60.2,32.4,30.38,NE,44,1.1,3.5,35,0.00,CLR,,0.00,1024.9,WeatherDisplay:10.37,2013-04-27 17:09:00,
2013-04-27 13:14:00,60.2,31.7,30.38,NE,44,1.0,3.0,34,0.00,CLR,,0.00,1024.9,WeatherDisplay:10.37,2013-04-27 17:14:00,
2013-04-27 13:19:00,60.1,30.9,30.38,NE,44,0.2,2.3,33,0.00,CLR,,0.00,1021.5,WeatherDisplay:10.37,2013-04-27 17:19:00,
2013-04-27 13:24:00,60.1,32.3,30.38,NNE,19,2.4,4.0,35,0.00,CLR,,0.00,1012.5,WeatherDisplay:10.37,2013-04-27 17:24:00,
2013-04-27 13:29:00,60.1,29.3,30.38,NE,42,3.0,5.8,31,0.00,CLR,,0.00,1029.4,WeatherDisplay:10.37,2013-04-27 17:29:00,
2013-04-27 13:34:00,60.0,28.4,30.37,NNE,32,0.9,4.0,30,0.00,CLR,,0.00,1019.3,WeatherDisplay:10.37,2013-04-27 17:34:00,
2013-04-27 13:39:00,60.5,32.7,30.37,NW,307,1.7,3.5,35,0.00,CLR,,0.00,985.4,WeatherDisplay:10.37,2013-04-27 17:39:00,
2013-04-27 13:44:00,60.9,31.6,30.37,WSW,251,4.8,5.8,33,0.00,CLR,,0.00,998.9,WeatherDisplay:10.37,2013-04-27 17:44:00,
2013-04-27 13:49:00,61.4,28.8,30.37,WNW,286,3.4,5.8,29,0.00,CLR,,0.00,1021.5,WeatherDisplay:10.37,2013-04-27 17:49:00,
2013-04-27 13:54:00,61.6,29.8,30.37,West,279,4.3,7.0,30,0.00,CLR,,0.00,1022.6,WeatherDisplay:10.37,2013-04-27 17:54:00,
2013-04-27 13:59:00,61.8,30.8,30.37,West,275,4.2,5.8,31,0.00,CLR,,0.00,750.3,WeatherDisplay:10.37,2013-04-27 17:59:00,
2013-04-27 14:04:00,61.6,28.1,30.37,WNW,299,3.1,4.6,28,0.00,FEW,,0.00,907.4,WeatherDisplay:10.37,2013-04-27 18:04:00,
2013-04-27 14:09:00,62.1,27.7,30.37,WNW,288,5.3,9.2,27,0.00,CLR,,0.00,941.3,WeatherDisplay:10.37,2013-04-27 18:09:00,
2013-04-27 14:14:00,62.6,28.1,30.36,NNW,347,3.1,5.8,27,0.00,CLR,,0.00,991.0,WeatherDisplay:10.37,2013-04-27 18:14:00,
2013-04-27 14:19:00,62.9,31.0,30.36,ESE,107,1.8,4.0,30,0.00,CLR,,0.00,1017.0,WeatherDisplay:10.37,2013-04-27 18:19:00,
2013-04-27 14:24:00,62.8,29.2,30.36,North,360,2.2,4.6,28,0.00,FEW,,0.00,458.8,WeatherDisplay:10.37,2013-04-27 18:24:00,
2013-04-27 14:29:00,62.3,29.6,30.36,North,360,1.2,3.5,29,0.00,SCT,,0.00,504.0,WeatherDisplay:10.37,2013-04-27 18:29:00,
2013-04-27 14:34:00,62.2,27.8,30.36,North,360,1.2,3.0,27,0.00,CLR,,0.00,1006.8,WeatherDisplay:10.37,2013-04-27 18:34:00,
2013-04-27 14:39:00,62.5,30.6,30.36,NW,304,4.8,5.8,30,0.00,CLR,,0.00,963.9,WeatherDisplay:10.37,2013-04-27 18:39:00,
2013-04-27 14:44:00,62.9,33.3,30.35,NW,306,3.8,5.8,33,0.00,CLR,,0.00,931.1,WeatherDisplay:10.37,2013-04-27 18:44:00,
2013-04-27 14:49:00,62.8,30.0,30.35,NW,319,1.5,3.5,29,0.00,FEW,,0.00,919.8,WeatherDisplay:10.37,2013-04-27 18:49:00,
2013-04-27 14:54:00,62.9,34.1,30.35,WNW,286,5.0,7.0,34,0.00,CLR,,0.00,925.5,WeatherDisplay:10.37,2013-04-27 18:54:00,
2013-04-27 14:59:00,63.4,33.0,30.35,WSW,258,2.8,3.5,32,0.00,CLR,,0.00,911.9,WeatherDisplay:10.37,2013-04-27 18:59:00,
2013-04-27 15:04:00,63.4,34.5,30.35,NW,306,3.4,4.6,34,0.00,CLR,,0.00,888.2,WeatherDisplay:10.37,2013-04-27 19:04:00,
2013-04-27 15:09:00,63.6,34.7,30.34,NW,313,1.3,3.5,34,0.00,CLR,,0.00,872.4,WeatherDisplay:10.37,2013-04-27 19:09:00,
2013-04-27 15:14:00,63.9,33.4,30.34,NNW,345,1.7,3.0,32,0.00,CLR,,0.00,862.2,WeatherDisplay:10.37,2013-04-27 19:14:00,
2013-04-27 15:19:00,63.8,33.4,30.34,NE,48,1.9,5.0,32,0.00,CLR,,0.00,854.3,WeatherDisplay:10.37,2013-04-27 19:19:00,
2013-04-27 15:24:00,64.1,34.4,30.33,ENE,61,1.3,3.5,33,0.00,CLR,,0.00,823.8,WeatherDisplay:10.37,2013-04-27 19:24:00,
2013-04-27 15:29:00,63.9,32.6,30.33,NNW,341,1.0,3.5,31,0.00,CLR,,0.00,739.0,WeatherDisplay:10.37,2013-04-27 19:29:00,
2013-04-27 15:34:00,63.9,35.0,30.33,WNW,287,0.5,5.0,34,0.00,CLR,,0.00,760.5,WeatherDisplay:10.37,2013-04-27 19:34:00,
2013-04-27 15:39:00,64.3,38.1,30.33,West,281,6.8,8.1,38,0.00,CLR,,0.00,757.1,WeatherDisplay:10.37,2013-04-27 19:39:00,
2013-04-27 15:44:00,64.4,36.1,30.33,WNW,288,1.2,3.5,35,0.00,SCT,,0.00,534.5,WeatherDisplay:10.37,2013-04-27 19:44:00,
2013-04-27 15:49:00,64.1,35.1,30.33,WNW,290,2.7,3.5,34,0.00,FEW,,0.00,283.6,WeatherDisplay:10.37,2013-04-27 19:49:00,
2013-04-27 15:54:00,63.5,33.9,30.33,WNW,294,5.2,6.9,33,0.00,BKN,,0.00,272.3,WeatherDisplay:10.37,2013-04-27 19:54:00,
2013-04-27 15:59:00,62.7,34.6,30.32,WNW,290,1.8,3.5,35,0.00,BKN,,0.00,230.5,WeatherDisplay:10.37,2013-04-27 19:59:00,
2013-04-27 16:04:00,62.5,35.9,30.32,WNW,294,1.3,3.5,37,0.00,BKN,,0.00,228.3,WeatherDisplay:10.37,2013-04-27 20:04:00,
2013-04-27 16:09:00,62.5,35.9,30.32,NNE,16,1.8,4.6,37,0.00,BKN,,0.00,322.1,WeatherDisplay:10.37,2013-04-27 20:09:00,
2013-04-27 16:14:00,62.7,34.6,30.32,NNE,14,2.6,4.6,35,0.00,BKN,,0.00,283.6,WeatherDisplay:10.37,2013-04-27 20:14:00,
2013-04-27 16:19:00,62.7,33.9,30.32,NW,316,2.9,3.5,34,0.00,BKN,,0.00,266.7,WeatherDisplay:10.37,2013-04-27 20:19:00,
2013-04-27 16:24:00,62.5,33.7,30.32,NW,316,0.2,2.0,34,0.00,BKN,,0.00,254.3,WeatherDisplay:10.37,2013-04-27 20:24:00,
2013-04-27 16:29:00,62.6,36.6,30.31,NW,316,0.0,0.0,38,0.00,FEW,,0.00,697.2,WeatherDisplay:10.37,2013-04-27 20:29:00,
2013-04-27 16:34:00,63.5,33.9,30.31,NW,316,0.2,2.0,33,0.00,CLR,,0.00,852.0,WeatherDisplay:10.37,2013-04-27 20:34:00,
2013-04-27 16:39:00,63.9,34.2,30.31,NW,316,1.6,3.5,33,0.00,BKN,,0.00,248.6,WeatherDisplay:10.37,2013-04-27 20:39:00,
2013-04-27 16:44:00,63.7,32.5,30.31,NW,316,3.5,4.6,31,0.00,BKN,,0.00,228.3,WeatherDisplay:10.37,2013-04-27 20:44:00,
2013-04-27 16:49:00,63.2,35.1,30.30,NW,314,2.3,5.0,35,0.00,BKN,,0.00,222.6,WeatherDisplay:10.37,2013-04-27 20:49:00,
2013-04-27 16:54:00,62.7,36.0,30.31,WNW,299,2.6,3.5,37,0.00,BKN,,0.00,228.3,WeatherDisplay:10.37,2013-04-27 20:54:00,
2013-04-27 16:59:00,62.2,33.5,30.30,WNW,299,0.0,0.0,34,0.00,BKN,,0.00,191.0,WeatherDisplay:10.37,2013-04-27 20:59:00,
2013-04-27 17:04:00,62.0,34.7,30.30,WNW,299,0.1,1.2,36,0.00,SCT,,0.00,184.2,WeatherDisplay:10.37,2013-04-27 21:04:00,
2013-04-27 17:10:00,61.8,33.1,30.30,WNW,299,0.2,1.2,34,0.00,SCT,,0.00,178.5,WeatherDisplay:10.37,2013-04-27 21:10:00,
2013-04-27 17:15:00,61.8,33.8,30.30,WNW,299,1.5,3.0,35,0.00,FEW,,0.00,209.1,WeatherDisplay:10.37,2013-04-27 21:15:00,
2013-04-27 17:20:00,61.8,33.8,30.30,WNW,299,3.4,4.0,35,0.00,FEW,,0.00,212.4,WeatherDisplay:10.37,2013-04-27 21:20:00,
2013-04-27 17:25:00,62.0,35.4,30.30,WNW,299,0.4,2.3,37,0.00,FEW,,0.00,228.3,WeatherDisplay:10.37,2013-04-27 21:25:00,
2013-04-27 17:30:00,62.2,34.2,30.30,WNW,299,0.9,3.5,35,0.00,CLR,,0.00,222.6,WeatherDisplay:10.37,2013-04-27 21:30:00,
2013-04-27 17:35:00,62.3,33.6,30.30,WNW,299,0.6,2.3,34,0.00,FEW,,0.00,186.4,WeatherDisplay:10.37,2013-04-27 21:35:00,
2013-04-27 17:40:00,62.3,32.0,30.30,WNW,299,0.2,1.2,32,0.00,BKN,,0.00,120.9,WeatherDisplay:10.37,2013-04-27 21:40:00,
2013-04-27 17:45:00,62.2,36.9,30.30,WNW,299,0.3,2.3,39,0.00,BKN,,0.00,117.5,WeatherDisplay:10.37,2013-04-27 21:45:00,
2013-04-27 17:50:00,62.1,32.6,30.30,WNW,299,0.1,1.2,33,0.00,FEW,,0.00,343.5,WeatherDisplay:10.37,2013-04-27 21:50:00,
2013-04-27 17:55:00,62.1,36.8,30.30,WNW,299,0.0,2.3,39,0.00,FEW,,0.00,151.4,WeatherDisplay:10.37,2013-04-27 21:55:00,
2013-04-27 18:00:00,62.2,36.3,30.30,WNW,299,0.0,1.2,38,0.00,FEW,,0.00,152.6,WeatherDisplay:10.37,2013-04-27 22:00:00,
2013-04-27 18:05:00,62.2,34.9,30.30,WNW,299,0.0,0.0,36,0.00,SCT,,0.00,133.3,WeatherDisplay:10.37,2013-04-27 22:05:00,
2013-04-27 18:10:00,62.1,32.6,30.30,WNW,299,0.2,0.0,33,0.00,SCT,,0.00,125.4,WeatherDisplay:10.37,2013-04-27 22:10:00,
2013-04-27 18:15:00,62.0,34.7,30.29,NW,311,0.0,0.0,36,0.00,SCT,,0.00,101.7,WeatherDisplay:10.37,2013-04-27 22:15:00,
2013-04-27 18:20:00,62.0,34.7,30.30,NW,311,0.0,0.0,36,0.00,SCT,,0.00,85.9,WeatherDisplay:10.37,2013-04-27 22:20:00,
2013-04-27 18:25:00,61.6,32.9,30.30,NW,311,0.0,0.0,34,0.00,BKN,,0.00,99.4,WeatherDisplay:10.37,2013-04-27 22:25:00,
2013-04-27 18:30:00,61.5,32.8,30.30,NW,311,0.0,0.0,34,0.00,BKN,,0.00,99.4,WeatherDisplay:10.37,2013-04-27 22:30:00,
2013-04-27 18:35:00,61.5,38.2,30.30,NW,311,0.0,0.0,42,0.00,BKN,,0.00,85.9,WeatherDisplay:10.37,2013-04-27 22:35:00,
2013-04-27 18:40:00,61.4,35.5,30.30,NW,311,0.6,2.3,38,0.00,BKN,,0.00,70.1,WeatherDisplay:10.37,2013-04-27 22:40:00,
2013-04-27 18:45:00,61.2,34.0,30.29,NW,311,0.0,0.0,36,0.00,BKN,,0.00,67.8,WeatherDisplay:10.37,2013-04-27 22:45:00,
2013-04-27 18:50:00,61.0,33.8,30.29,NW,311,0.7,2.0,36,0.00,BKN,,0.00,65.5,WeatherDisplay:10.37,2013-04-27 22:50:00,
2013-04-27 18:55:00,60.9,37.0,30.29,NW,311,0.0,0.0,41,0.00,BKN,,0.00,65.5,WeatherDisplay:10.37,2013-04-27 22:55:00,
2013-04-27 19:00:00,60.7,36.2,30.29,NW,311,0.0,0.0,40,0.00,BKN,,0.00,65.5,WeatherDisplay:10.37,2013-04-27 23:00:00,
2013-04-27 19:05:00,60.6,34.2,30.29,NW,311,0.0,0.0,37,0.00,BKN,,0.00,49.7,WeatherDisplay:10.37,2013-04-27 23:05:00,
2013-04-27 19:10:00,60.5,37.3,30.29,NW,311,0.0,1.2,42,0.00,BKN,,0.00,29.4,WeatherDisplay:10.37,2013-04-27 23:10:00,
2013-04-27 19:15:00,60.2,37.0,30.29,NW,311,0.0,1.2,42,0.00,BKN,,0.00,21.5,WeatherDisplay:10.37,2013-04-27 23:15:00,
2013-04-27 19:20:00,59.8,36.0,30.29,NW,311,0.0,0.0,41,0.00,BKN,,0.00,18.1,WeatherDisplay:10.37,2013-04-27 23:20:00,
2013-04-27 19:25:00,59.4,36.3,30.29,NW,311,0.0,1.2,42,0.00,BKN,,0.00,15.8,WeatherDisplay:10.37,2013-04-27 23:25:00,
2013-04-27 19:30:00,59.0,35.9,30.29,NW,311,0.0,1.2,42,0.00,BKN,,0.00,13.6,WeatherDisplay:10.37,2013-04-27 23:30:00,
2013-04-27 19:35:00,58.5,37.2,30.29,NW,317,0.0,1.2,45,0.00,BKN,,0.00,10.2,WeatherDisplay:10.37,2013-04-27 23:35:00,
2013-04-27 19:40:00,58.0,36.8,30.29,NW,317,0.0,0.0,45,0.00,BKN,,0.00,7.9,WeatherDisplay:10.37,2013-04-27 23:40:00,
2013-04-27 19:45:00,57.5,36.9,30.28,NW,317,0.0,0.0,46,0.00,BKN,,0.00,5.7,WeatherDisplay:10.37,2013-04-27 23:45:00,
2013-04-27 19:50:00,57.1,34.8,30.28,NW,317,0.0,0.0,43,0.00,BKN,,0.00,0.0,WeatherDisplay:10.37,2013-04-27 23:50:00,
2013-04-27 19:55:00,56.8,34.5,30.28,NW,317,0.8,1.2,43,0.00,BKN,,0.00,0.0,WeatherDisplay:10.37,2013-04-27 23:55:00,
2013-04-27 20:00:00,56.4,34.7,30.28,NW,317,0.0,0.0,44,0.00,BKN,,0.00,0.0,WeatherDisplay:10.37,2013-04-28 00:00:00,
2013-04-27 20:05:00,56.0,33.8,30.28,NW,317,0.0,0.0,43,0.00,BKN,,0.00,0.0,WeatherDisplay:10.37,2013-04-28 00:05:00,
2013-04-27 20:10:00,55.9,34.3,30.28,NW,317,0.0,0.0,44,0.00,BKN,,0.00,0.0,WeatherDisplay:10.37,2013-04-28 00:10:00,
2013-04-27 20:15:00,55.8,35.9,30.28,NW,317,0.7,2.3,47,0.00,BKN,,0.00,0.0,WeatherDisplay:10.37,2013-04-28 00:15:00,
2013-04-27 20:20:00,55.5,35.6,30.28,NW,317,0.0,0.0,47,0.00,BKN,,0.00,0.0,WeatherDisplay:10.37,2013-04-28 00:20:00,
2013-04-27 20:25:00,55.2,36.4,30.28,NW,317,0.0,1.2,49,0.00,BKN,,0.00,0.0,WeatherDisplay:10.37,2013-04-28 00:25:00,
2013-04-27 20:30:00,54.8,36.0,30.28,NW,317,0.0,1.2,49,0.00,BKN,,0.00,0.0,WeatherDisplay:10.37,2013-04-28 00:30:00,
2013-04-27 20:35:00,54.1,35.3,30.28,NW,317,0.0,0.0,49,0.00,BKN,,0.00,0.0,WeatherDisplay:10.37,2013-04-28 00:35:00,
2013-04-27 20:40:00,53.7,34.5,30.28,NW,317,0.0,0.0,48,0.00,BKN,,0.00,0.0,WeatherDisplay:10.37,2013-04-28 00:40:00,
2013-04-27 20:45:00,53.5,35.3,30.28,NW,317,0.0,0.0,50,0.00,BKN,,0.00,0.0,WeatherDisplay:10.37,2013-04-28 00:45:00,
2013-04-27 20:50:00,53.1,35.4,30.28,NW,317,0.2,1.2,51,0.00,BKN,,0.00,0.0,WeatherDisplay:10.37,2013-04-28 00:50:00,
2013-04-27 20:55:00,52.5,34.4,30.29,NW,317,0.0,0.0,50,0.00,BKN,,0.00,0.0,WeatherDisplay:10.37,2013-04-28 00:55:00,
2013-04-27 21:00:00,52.2,34.6,30.29,NW,317,0.0,0.0,51,0.00,BKN,,0.00,0.0,WeatherDisplay:10.37,2013-04-28 01:00:00,
2013-04-27 21:05:00,52.0,34.9,30.29,NW,317,0.0,0.0,52,0.00,BKN,,0.00,0.0,WeatherDisplay:10.37,2013-04-28 01:05:00,
2013-04-27 21:10:00,52.3,34.7,30.29,NW,317,0.0,0.0,51,0.00,BKN,,0.00,0.0,WeatherDisplay:10.37,2013-04-28 01:10:00,
2013-04-27 21:15:00,52.6,34.5,30.29,NW,317,0.0,1.0,50,0.00,BKN,,0.00,0.0,WeatherDisplay:10.37,2013-04-28 01:15:00,
2013-04-27 21:20:00,52.4,34.8,30.29,NW,317,0.0,1.2,51,0.00,BKN,,0.00,0.0,WeatherDisplay:10.37,2013-04-28 01:20:00,
2013-04-27 21:25:00,51.8,36.6,30.29,NW,317,0.9,2.3,56,0.00,BKN,,0.00,0.0,WeatherDisplay:10.37,2013-04-28 01:25:00,
2013-04-27 21:30:00,50.5,38.0,30.29,East,92,0.2,1.2,62,0.00,BKN,,0.00,0.0,WeatherDisplay:10.37,2013-04-28 01:30:00,
2013-04-27 21:35:00,49.3,36.4,30.29,East,93,0.6,3.5,61,0.00,BKN,,0.00,0.0,WeatherDisplay:10.37,2013-04-28 01:35:00,
2013-04-27 21:40:00,49.2,35.5,30.30,East,93,0.0,0.0,59,0.00,BKN,,0.00,0.0,WeatherDisplay:10.37,2013-04-28 01:40:00,
2013-04-27 21:45:00,49.2,36.7,30.30,East,93,0.4,1.2,62,0.00,BKN,,0.00,0.0,WeatherDisplay:10.37,2013-04-28 01:45:00,
2013-04-27 21:50:00,48.8,36.8,30.30,East,93,0.0,1.2,63,0.00,BKN,,0.00,0.0,WeatherDisplay:10.37,2013-04-28 01:50:00,
2013-04-27 21:55:00,48.5,36.1,30.30,East,93,0.0,0.0,62,0.00,BKN,,0.00,0.0,WeatherDisplay:10.37,2013-04-28 01:55:00,
2013-04-27 22:00:00,48.5,35.7,30.30,East,93,0.0,0.0,61,0.00,BKN,,0.00,0.0,WeatherDisplay:10.37,2013-04-28 02:00:00,
2013-04-27 22:05:00,48.7,36.7,30.30,East,93,0.4,1.2,63,0.00,BKN,,0.00,0.0,WeatherDisplay:10.37,2013-04-28 02:05:00,
2013-04-27 22:10:00,48.7,36.7,30.30,East,93,0.0,1.0,63,0.00,BKN,,0.00,0.0,WeatherDisplay:10.37,2013-04-28 02:10:00,
2013-04-27 22:15:00,48.6,36.5,30.30,East,93,0.0,2.0,63,0.00,BKN,,0.00,0.0,WeatherDisplay:10.37,2013-04-28 02:15:00,
2013-04-27 22:20:00,48.3,37.1,30.30,East,93,1.3,2.3,65,0.00,BKN,,0.00,0.0,WeatherDisplay:10.37,2013-04-28 02:20:00,
2013-04-27 22:25:00,47.9,36.7,30.31,East,93,0.0,2.0,65,0.00,BKN,,0.00,0.0,WeatherDisplay:10.37,2013-04-28 02:25:00,
2013-04-27 22:30:00,47.4,37.4,30.31,East,93,0.4,2.0,68,0.00,BKN,,0.00,0.0,WeatherDisplay:10.37,2013-04-28 02:30:00,
2013-04-27 22:35:00,47.0,36.9,30.30,East,94,3.0,5.0,68,0.00,BKN,,0.00,0.0,WeatherDisplay:10.37,2013-04-28 02:35:00,
2013-04-27 22:40:00,46.6,37.0,30.31,East,98,3.3,4.6,69,0.00,BKN,,0.00,0.0,WeatherDisplay:10.37,2013-04-28 02:40:00,
2013-04-27 22:45:00,46.4,37.5,30.31,East,98,0.3,2.3,71,0.00,BKN,,0.00,0.0,WeatherDisplay:10.37,2013-04-28 02:45:00,
2013-04-27 22:50:00,46.3,37.4,30.31,East,98,0.0,1.0,71,0.00,BKN,,0.00,0.0,WeatherDisplay:10.37,2013-04-28 02:50:00,
2013-04-27 22:55:00,46.0,37.5,30.30,East,98,0.0,0.0,72,0.00,BKN,,0.00,0.0,WeatherDisplay:10.37,2013-04-28 02:55:00,
2013-04-27 23:00:00,45.9,36.7,30.30,East,98,0.0,0.0,70,0.00,BKN,,0.00,0.0,WeatherDisplay:10.37,2013-04-28 03:00:00,
2013-04-27 23:05:00,45.7,36.8,30.30,East,98,1.0,4.0,71,0.00,BKN,,0.00,0.0,WeatherDisplay:10.37,2013-04-28 03:05:00,
2013-04-27 23:10:00,45.6,36.0,30.30,ESE,116,4.0,4.6,69,0.00,BKN,,0.00,0.0,WeatherDisplay:10.37,2013-04-28 03:10:00,
2013-04-27 23:15:00,45.5,36.6,30.30,ESE,117,1.1,3.5,71,0.00,BKN,,0.00,0.0,WeatherDisplay:10.37,2013-04-28 03:15:00,
2013-04-27 23:20:00,45.1,37.3,30.30,ESE,117,3.0,5.0,74,0.00,BKN,,0.00,0.0,WeatherDisplay:10.37,2013-04-28 03:20:00,
2013-04-27 23:25:00,44.7,36.9,30.30,ESE,117,0.7,2.3,74,0.00,BKN,,0.00,0.0,WeatherDisplay:10.37,2013-04-28 03:25:00,
2013-04-27 23:30:00,44.3,36.9,30.30,ESE,117,0.0,2.0,75,0.00,BKN,,0.00,0.0,WeatherDisplay:10.37,2013-04-28 03:30:00,
2013-04-27 23:35:00,43.8,36.7,30.30,ESE,117,3.0,5.0,76,0.00,BKN,,0.00,0.0,WeatherDisplay:10.37,2013-04-28 03:35:00,
2013-04-27 23:40:00,43.2,36.5,30.30,ESE,117,0.6,3.5,77,0.00,BKN,,0.00,0.0,WeatherDisplay:10.37,2013-04-28 03:40:00,
2013-04-27 23:45:00,42.9,36.5,30.30,ESE,117,3.9,4.0,78,0.00,BKN,,0.00,0.0,WeatherDisplay:10.37,2013-04-28 03:45:00,
2013-04-27 23:50:00,42.7,36.6,30.30,ESE,121,5.7,6.0,79,0.00,BKN,,0.00,0.0,WeatherDisplay:10.37,2013-04-28 03:50:00,
2013-04-27 23:55:00,42.7,36.6,30.30,ESE,120,4.8,5.0,79,0.00,BKN,,0.00,0.0,WeatherDisplay:10.37,2013-04-28 03:55:00,